Tracking 34138 objects as of 15-May-2026
HD Live streaming from Space Station
objects crossing your sky now

STARLINK-37003

Track STARLINK-37003 now!
10-day predictions
STARLINK-37003 is classified as:


NORAD ID: 68170
Int'l Code: 2026-050D
Perigee: 455.9 km
Apogee: 457.5 km
Inclination: 53.2 °
Period: 93.6 minutes
Semi major axis: 6827 km
RCS: Unknown
Launch date: March 14, 2026
Source: United States (US)
Launch site: AIR FORCE EASTERN TEST RANGE (AFETR)
Your satellite tracking list
Your tracking list is empty




NASA's NSSDC Master Catalog

Two Line Element Set (TLE):
1 68170U 26050D   26134.95821798  .00016103  00000-0  42235-3 0  9990
2 68170  53.1580 319.3378 0001142  92.5021 267.6115 15.38835446 10823
Source of the keplerian elements: AFSPC